#timestamp,LO_Frequency,Hit,StdDev 
1581202815.0,286046974.7,N
1581202815.9,286046974.7,N
1581202835.8,286046984.0,N
1581202855.6,286046986.4,N
1581202875.4,286046985.3,N
1581202895.3,286046994.2,N
1581202915.1,286046998.8,N
1581202935.8,286047009.0,N
1581202955.7,286047001.8,N
1581202975.5,286046997.4,N
1581202995.4,286046997.6,N
1581203015.2,286046988.7,N
1581203035.0,286046993.5,N
1581203035.9,286046993.5,N
1581203055.8,286046994.2,N
1581203075.6,286046989.8,N
1581203095.5,286046996.7,N
1581203115.3,286046992.6,N
1581203135.1,286046988.9,N
1581203155.9,286046986.0,N
1581203175.7,286046992.8,N
1581203195.5,286046988.1,N
1581203215.4,286046990.3,N
1581203235.2,286046989.2,N
1581203255.0,286046987.1,N
1581203256.0,286046987.1,N
1581203275.8,286046989.9,N
1581203295.6,286046991.4,N
1581203315.5,286046986.9,N
1581203335.3,286046987.1,N
1581203355.1,286046989.6,N
1581203375.9,286046990.3,N
1581203395.7,286046987.0,N
1581203415.6,286046987.7,N
1581203435.4,286046984.1,Y
1581203455.2,286047000.7,P
1581203475.1,286047002.5,N
1581203476.0,286047002.5,N
1581203495.8,286046999.0,N
1581203515.6,286046988.5,N
1581203535.5,286046990.8,N
1581203555.3,286046987.4,N
1581203575.2,286046994.4,N
1581203595.9,286046994.8,N
1581203615.7,286046997.6,N
1581203635.6,286047002.6,N
1581203655.4,286046997.2,N
1581203675.2,286046995.7,N
1581203695.1,286047003.5,N
1581203696.0,286047003.5,N
1581203715.8,286046995.5,N
1581203735.7,286046993.7,N
1581203755.5,286046997.7,N
1581203775.3,286046993.8,N
1581203795.2,286046991.9,N
1581203815.0,286046998.2,N
1581203815.9,286046998.2,N
1581203835.7,286047003.2,N
1581203855.6,286047002.8,N
1581203875.4,286047000.9,N
1581203895.3,286047001.0,N
1581203915.1,286046999.1,N
1581203916.0,286046999.1,N
1581203935.8,286046998.2,N
1581203955.7,286047004.2,N
1581203975.5,286047006.4,N
1581203995.4,286047004.7,N
1581204015.2,286047012.2,N
1581204035.0,286047008.0,N
1581204035.9,286047008.0,N
1581204055.8,286047012.4,N
1581204075.6,286047008.3,N
1581204095.4,286047005.6,N
1581204115.3,286047013.7,N
1581204135.1,286047013.1,N
1581204155.9,286047012.4,N
1581204175.7,286047009.5,N
1581204195.5,286047010.6,N
1581204215.4,286047006.4,N
1581204235.2,286047003.3,N
1581204255.1,286047007.5,N
1581204256.0,286047007.5,N
1581204275.8,286047005.1,N
1581204295.6,286046994.9,N
1581204315.5,286046995.1,N
1581204335.3,286046995.2,N
1581204355.1,286047003.7,N
1581204375.9,286047000.5,N
1581204395.7,286047002.2,N
1581204415.6,286047004.4,N
1581204435.4,286047001.6,N
1581204455.2,286047004.0,N
1581204475.1,286047002.9,N
1581204476.0,286047002.9,N
1581204495.8,286047003.5,N
1581204515.7,286046998.5,N
1581204535.5,286047005.1,N
1581204555.3,286047002.1,N
1581204575.2,286047002.6,N
1581204595.9,286047005.7,N
1581204615.7,286047005.5,N
1581204635.6,286047013.2,N
1581204655.4,286047017.0,Y
1581204675.3,286047012.2,P
1581204695.1,286047014.2,P
1581204696.0,286047014.2,P
1581204715.8,286047021.5,Y
1581204735.7,286047013.1,P
1581204755.5,286047011.2,P
1581204775.3,286047012.3,P
1581204795.2,286047016.4,Y
1581204815.0,286046996.4,P
1581204815.9,286046996.4,N
1581204835.8,286046993.6,N
1581204855.6,286046986.3,N
1581204875.4,286046987.6,N
1581204895.3,286046986.5,N
1581204915.1,286046982.9,N
1581204935.9,286046980.7,N
1581204955.7,286046976.4,N
1581204975.5,286046973.4,N
1581204995.4,286046976.7,N
1581205015.2,286046980.4,N
1581205035.0,286046974.4,N
1581205035.9,286046974.4,N
1581205055.8,286046975.3,N
1581205075.6,286046979.7,N
1581205095.5,286046979.8,N
1581205115.3,286046980.2,N
1581205135.1,286046976.4,N
1581205155.9,286046977.9,N
1581205175.7,286046980.4,N
1581205195.5,286046982.8,N
1581205215.4,286046983.2,N
1581205235.2,286046984.7,N
1581205255.1,286046983.6,N
1581205256.0,286046983.6,N
1581205275.8,286046981.1,N
1581205295.6,286046988.7,N
1581205315.5,286046985.4,N
1581205335.3,286046990.3,N
1581205355.2,286046991.1,N
1581205375.9,286046988.8,N
1581205395.7,286046994.7,N
1581205415.6,286046988.2,N
1581205435.4,286046990.4,N
1581205455.2,286046991.9,N
1581205475.1,286046989.2,N
1581205476.0,286046989.2,N
1581205495.8,286046989.4,N
1581205515.7,286046981.1,Y
1581205535.5,286046999.0,P
1581205555.3,286047001.1,N
1581205575.2,286046996.5,N
1581205595.0,286046999.0,N
1581205595.9,286046999.0,N
1581205615.8,286046998.0,N
1581205635.6,286047001.2,N
1581205655.4,286046998.0,N
1581205675.3,286047001.5,N
1581205695.1,286047007.2,N
1581205715.9,286047006.7,N
1581205735.7,286047002.9,N
1581205755.5,286046993.3,N
1581205775.4,286046999.4,N
1581205795.2,286046995.3,N
1581205815.0,286046997.2,N
1581205816.0,286046997.2,N
1581205835.8,286047003.0,N
1581205855.6,286047005.9,N
1581205875.5,286047000.6,N
1581205895.3,286046999.2,N
1581205915.1,286046998.6,N
1581205935.9,286046992.1,N
1581205955.7,286046986.3,N
1581205975.6,286047005.9,N
1581205995.4,286047004.7,N
1581206015.2,286047002.7,N
1581206035.1,286047000.7,N
1581206036.0,286047000.7,N
1581206055.8,286047003.0,N
1581206075.6,286047003.5,N
1581206095.5,286047001.5,N
1581206115.3,286046996.6,N
1581206135.2,286046997.3,N
1581206155.9,286047003.9,N
1581206175.7,286047001.4,N
1581206195.6,286047000.9,N
1581206215.4,286047003.7,N
1581206235.3,286047000.9,N
1581206255.1,286047002.5,N
1581206256.0,286047002.5,N
1581206275.8,286046994.9,N
1581206295.7,286046999.8,N
1581206315.5,286046991.7,N
1581206335.4,286046995.2,N
1581206355.2,286046998.2,N
1581206375.0,286046997.0,N
1581206375.9,286046997.0,N
1581206395.8,286046995.9,N
